Theta_e
333 335 334 332 332 332 329 326 323 326 326 324 323 322 321 322 322 322 323 317 321 323 326 327 328 329 329 329 329 329 329 329 328 328 328 328 329 328 328 328 328 329 329
332 334 332 332 332 331 329 327 324 324 325 324 323 323 322 323 322 323 323 322 319 322 323 325 326 327 328 328 328 329 329 329 328 328 328 328 328 327 328 327 327 327 328
332 333 332 330 330 330 327 326 324 323 321 322 323 323 323 323 322 322 323 323 322 318 321 323 324 325 326 327 327 328 328 328 328 327 327 327 326 326 326 326 327 327 327
332 332 331 332 333 332 329 326 323 321 320 320 321 323 324 324 323 322 322 322 323 322 321 321 321 323 323 325 326 326 326 327 326 326 325 325 325 326 326 326 326 325 325
331 330 331 333 332 330 327 325 322 320 319 321 322 324 325 326 325 324 323 324 324 324 324 322 320 318 319 321 323 323 323 324 324 324 324 325 325 324 324 323 322 322 322
329 330 329 330 331 330 325 324 323 323 323 322 320 320 323 325 324 326 325 324 324 324 324 324 324 320 317 318 320 322 322 324 325 323 322 321 321 320 319 319 318 318 316
328 329 328 328 327 328 326 325 323 321 321 323 321 320 320 323 325 325 325 324 323 322 322 322 321 320 318 318 317 320 323 323 321 318 317 317 315 315 315 314 314 313 313
320 327 328 327 327 327 327 326 324 322 323 323 320 319 314 317 320 317 317 317 318 319 318 318 318 316 314 310 308 311 313 315 314 312 311 311 311 311 312 312 312 312 312
315 319 326 327 328 327 326 326 325 324 321 322 324 319 311 308 313 316 315 316 316 317 317 315 310 307 303 301 302 303 305 307 307 307 308 308 309 309 310 310 310 310 310
311 314 318 325 325 328 327 327 327 325 324 319 321 319 321 318 311 308 316 315 317 316 311 306 302 301 301 299 299 300 302 303 303 303 304 305 306 307 308 308 309 309 309
309 309 312 321 323 325 326 327 326 325 325 322 320 318 317 319 318 313 309 311 314 306 303 300 299 298 296 296 296 299 300 301 301 300 301 302 303 305 306 307 307 307 308
306 307 309 312 324 324 324 323 326 325 324 323 322 321 319 316 314 314 311 311 308 302 300 298 296 295 296 294 294 295 297 298 299 299 299 300 301 302 303 304 305 306 307
302 304 306 308 313 324 326 326 325 325 324 323 322 321 320 318 318 313 310 308 307 302 298 296 295 293 293 293 291 293 294 296 298 298 298 299 299 300 300 302 304 304 305
300 302 304 307 311 315 324 325 324 324 323 321 319 318 316 315 314 313 311 309 306 304 300 293 293 292 292 291 291 292 292 295 296 297 297 298 298 298 299 301 302 303 304
300 301 303 306 309 312 315 319 319 319 320 319 317 316 315 316 315 315 314 312 310 303 299 293 290 291 290 291 290 290 290 291 294 295 296 296 296 297 298 300 302 303 304
300 301 303 305 308 311 313 315 318 318 317 317 316 316 315 314 313 313 313 313 312 309 297 296 289 289 289 289 289 289 289 290 291 293 294 294 295 296 298 300 301 302 303
300 301 303 304 306 308 312 313 315 316 314 311 310 310 306 308 306 305 307 307 308 308 294 291 291 289 287 288 288 288 288 289 289 291 293 293 294 295 297 298 299 300 302
300 300 302 304 304 304 307 311 308 308 307 305 303 304 303 303 302 302 303 303 303 303 299 290 288 286 286 287 288 287 286 287 287 290 292 292 293 294 296 297 297 298 299
297 299 299 299 300 300 301 302 302 301 300 300 301 301 302 304 301 300 298 297 297 297 296 290 285 287 286 287 286 286 286 286 287 289 291 292 292 293 294 295 296 297 297
294 295 295 296 297 298 298 299 298 297 296 295 295 296 296 297 297 296 294 294 294 292 291 288 287 286 285 284 285 285 284 284 284 287 290 289 291 290 292 294 294 295 296
292 293 293 294 294 295 296 295 295 295 293 292 291 290 289 287 288 291 291 291 293 291 289 287 285 284 284 283 283 283 283 284 283 283 285 286 289 287 287 291 292 295 296
290 291 291 292 292 292 292 294 294 292 292 291 290 290 290 288 289 289 289 290 291 290 288 287 286 284 283 283 283 283 283 282 282 283 284 286 287 286 286 289 293 295 296
289 289 290 291 290 290 291 292 291 293 292 290 289 287 286 287 287 287 288 288 287 290 291 289 286 285 283 284 283 280 280 282 281 280 281 285 285 285 286 287 293 294 295
288 289 289 290 290 289 290 291 290 291 290 289 289 288 288 287 287 286 286 285 285 285 286 286 285 284 284 285 284 284 283 280 279 280 280 282 284 285 285 286 290 292 293
289 288 289 289 288 288 289 289 290 289 287 287 287 288 288 286 286 288 285 283 283 283 286 286 286 285 285 285 284 283 280 282 279 278 279 281 283 283 284 285 285 289 290
285 286 285 287 286 287 288 288 289 287 286 285 285 285 286 286 286 287 284 283 281 281 281 281 281 282 282 282 283 282 282 281 281 278 277 279 279 278 285 285 285 284 285
Wind_Speed
5 6 8 8 7 7 6 4 2 2 7 7 6 5 5 3 2 1 1 7 4 5 6 7 8 10 10 9 11 9 9 11 8 10 10 11 12 12 12 14 16 16 17
7 8 7 8 9 8 7 7 8 6 6 5 6 6 5 3 2 2 1 4 7 7 8 9 9 11 12 13 14 14 15 15 15 14 14 13 13 13 15 15 16 18 19
10 10 9 8 8 9 11 7 6 6 5 5 5 5 4 3 3 4 3 3 2 8 9 9 10 10 11 12 13 13 15 16 15 14 13 13 15 16 17 17 17 18 19
13 11 8 9 10 9 9 8 6 5 4 4 5 5 3 3 4 4 4 4 3 3 7 8 6 7 7 10 11 12 12 12 13 14 13 14 16 16 15 16 17 18 18
12 9 9 8 9 7 7 8 8 7 6 6 6 5 3 3 5 4 6 5 5 3 3 5 4 4 4 9 9 9 10 10 12 13 14 14 16 18 18 18 19 20 19
11 10 5 5 8 7 6 8 8 7 6 6 4 2 5 4 5 5 5 5 4 4 4 4 1 3 7 7 9 10 9 10 13 16 17 17 17 17 18 18 19 19 20
6 6 6 8 6 6 8 9 7 9 6 5 4 4 4 8 7 6 4 4 4 4 4 3 2 3 4 13 15 14 15 14 15 14 15 16 17 17 18 17 17 18 19
6 2 7 7 8 8 10 10 9 6 5 5 4 3 2 4 4 1 1 1 1 3 3 2 4 7 8 6 9 14 15 15 15 16 15 15 15 16 16 17 18 19 19
6 6 4 5 9 8 7 9 10 10 6 6 7 2 2 3 2 3 3 3 4 4 5 9 9 8 8 5 7 9 14 13 14 15 15 15 16 16 17 17 18 20 20
6 5 5 4 5 6 8 8 8 8 7 6 2 2 3 2 2 1 3 4 6 8 9 6 6 6 6 5 8 12 12 14 15 16 16 17 17 17 18 19 19 21 22
6 6 6 4 5 4 5 7 7 7 5 5 4 3 4 4 5 4 5 4 5 5 5 5 5 5 7 5 5 8 12 13 14 15 15 16 16 18 19 20 20 22 22
5 6 6 6 4 7 5 4 7 7 5 4 5 4 3 3 4 4 3 2 2 3 5 5 5 4 3 5 7 12 13 14 14 15 15 15 17 19 19 20 21 23 25
4 7 7 6 5 2 7 6 5 5 5 4 3 3 4 3 1 2 2 3 3 3 3 4 5 4 5 4 4 7 14 14 14 15 15 17 18 19 19 21 23 24 26
5 7 6 5 5 4 3 3 3 3 3 2 4 4 2 3 3 3 3 4 2 2 2 4 3 4 3 4 4 6 8 14 16 16 17 18 19 19 20 23 24 26 26
3 6 6 5 5 4 3 3 3 3 3 4 3 4 3 3 4 4 3 3 3 3 2 3 2 4 4 4 6 6 7 13 15 17 18 17 19 20 21 23 26 27 29
3 5 5 5 4 3 2 1 4 4 4 3 2 4 4 1 1 1 1 2 2 1 4 3 4 3 2 4 4 4 5 5 16 16 17 18 18 19 22 24 26 28 30
5 5 5 6 4 4 2 3 2 4 5 4 3 4 4 3 3 3 3 3 3 2 5 3 2 3 2 3 3 4 4 4 5 15 16 17 17 19 22 25 27 30 30
6 6 6 5 4 4 4 3 5 4 5 5 4 4 4 3 4 4 3 4 4 3 3 6 3 2 2 2 3 4 4 4 5 11 14 14 16 20 23 25 28 29 28
6 6 6 5 4 4 5 6 7 6 7 5 5 5 3 3 4 4 3 4 4 3 4 5 4 2 2 0 2 3 4 4 3 8 12 13 16 20 23 26 26 26 24
6 6 7 6 6 6 6 5 7 7 8 7 7 7 6 5 4 3 4 5 4 5 6 7 5 3 3 1 2 1 2 3 3 4 5 9 13 18 22 23 23 22 24
6 6 6 7 7 7 5 5 7 7 7 8 7 8 9 9 12 8 3 3 5 4 4 5 3 3 2 2 1 1 2 1 1 3 2 5 7 7 9 14 15 22 24
6 6 7 7 8 6 11 11 7 8 7 7 8 8 7 8 14 17 16 17 9 4 5 3 2 3 3 3 2 2 2 1 2 3 3 5 5 6 6 8 20 22 23
6 7 7 7 8 8 11 10 9 7 6 7 6 5 6 5 7 7 11 14 13 14 9 4 7 3 3 2 4 2 1 1 2 2 2 3 4 5 4 6 20 22 23
5 4 5 6 7 7 10 8 9 7 7 6 4 5 5 5 5 5 7 10 10 10 9 7 8 7 6 4 2 1 3 5 2 2 2 3 2 3 3 4 17 19 21
5 5 4 5 5 6 6 6 6 6 6 7 4 5 5 6 6 8 7 9 9 8 12 17 16 15 12 9 5 2 2 2 2 1 2 1 1 2 2 4 6 14 18
4 4 5 6 5 4 5 5 5 3 5 4 5 5 8 7 8 8 6 7 7 4 4 4 4 8 9 9 9 5 1 1 2 2 0 1 1 2 1 2 5 6 6
Wind_Direction
195 165 166 157 152 158 150 135 126 202 175 175 170 173 166 170 185 192 112 166 214 256 277 283 275 276 279 287 300 323 315 343 334 350 344 332 335 335 326 324 322 318 312
206 162 164 168 163 164 164 169 177 190 187 172 184 191 185 183 214 256 263 176 205 246 264 279 297 311 318 327 329 335 332 334 338 345 345 344 342 337 330 326 323 320 317
198 157 173 168 168 174 169 170 184 164 186 179 201 184 193 203 231 235 240 277 189 217 251 268 285 301 314 321 325 329 329 329 332 339 345 345 338 332 326 328 331 338 345
184 172 175 179 183 171 169 178 169 165 164 191 193 197 185 193 227 227 226 244 249 259 202 230 268 293 321 329 330 329 330 333 338 340 339 336 332 334 343 346 347 346 346
174 184 183 186 179 159 168 176 175 178 193 203 210 194 207 212 229 231 242 241 245 259 278 163 212 271 7 348 339 346 342 340 342 337 337 349 1 356 352 352 349 345 344
181 172 180 172 173 177 177 176 179 188 196 198 211 247 235 227 241 244 250 241 241 262 255 265 251 129 88 43 12 6 355 355 23 23 7 2 1 353 345 345 340 339 340
201 180 165 158 158 173 180 175 178 185 190 195 179 220 242 232 235 244 232 243 240 225 252 274 291 2 114 67 31 20 23 24 25 16 6 358 354 348 348 349 348 345 341
358 190 178 167 174 185 206 178 168 181 184 174 202 228 227 206 187 43 10 360 356 39 44 53 65 45 45 59 43 32 30 23 23 18 10 6 1 359 355 354 353 349 345
8 356 208 208 189 191 195 184 185 179 171 189 214 244 151 231 113 151 147 133 127 115 109 70 60 62 58 56 37 28 28 30 24 21 16 12 5 3 360 358 356 352 346
10 0 341 203 244 195 194 188 193 193 184 174 170 238 250 302 304 189 137 87 53 57 67 70 72 62 60 50 44 27 27 29 27 24 18 13 9 7 7 0 357 355 350
10 11 359 284 207 204 221 203 191 190 181 158 187 146 220 234 237 259 267 145 97 69 65 65 65 60 50 44 39 34 32 34 32 25 20 16 14 10 11 4 359 354 348
354 16 7 353 224 191 208 212 186 177 174 200 179 180 219 203 210 226 242 216 147 86 77 71 66 52 55 55 46 35 32 36 33 29 24 18 17 16 9 5 359 355 349
351 358 360 354 336 202 207 192 177 156 181 190 197 192 198 209 122 137 172 215 179 137 115 58 60 43 43 57 38 29 27 35 37 34 25 22 18 17 12 5 1 358 352
333 330 338 341 345 307 187 166 147 182 179 190 218 204 184 171 164 176 195 193 199 131 140 123 55 61 53 44 12 9 44 29 34 29 26 25 20 18 16 10 5 3 355
318 304 304 323 336 295 98 169 178 177 198 204 200 190 205 207 202 203 205 193 205 176 126 154 116 68 56 53 8 44 59 35 34 31 30 28 27 23 15 15 12 4 2
322 308 316 328 314 306 104 108 161 164 159 174 171 183 191 154 108 30 217 214 185 183 113 29 69 91 71 87 35 53 45 31 38 37 35 32 29 23 18 16 11 8 9
339 331 333 320 338 341 344 97 87 119 107 104 59 101 84 88 76 68 74 71 73 105 111 117 114 125 70 87 77 68 41 35 40 29 39 36 24 26 24 20 15 14 14
350 343 328 328 356 11 353 110 99 83 109 102 79 91 101 97 86 69 66 89 79 7 111 120 130 126 97 52 64 53 38 36 33 24 35 33 28 29 28 23 17 16 18
359 2 356 358 11 26 57 64 83 88 83 81 81 81 67 87 86 91 89 82 69 67 75 121 121 114 100 21 74 55 36 27 28 13 30 22 36 31 28 24 17 15 22
28 25 24 21 20 35 43 64 89 88 78 69 61 59 45 40 64 79 76 91 107 97 102 109 100 118 114 98 76 108 68 33 13 349 32 15 37 31 27 18 15 19 29
50 48 44 36 38 43 33 55 70 80 86 80 62 61 52 59 55 47 94 91 101 98 106 103 101 113 127 130 139 104 92 83 67 357 333 21 24 18 15 8 15 27 33
47 54 55 55 56 58 52 60 82 87 77 80 78 79 75 71 63 61 59 57 57 115 114 109 89 98 113 112 107 122 108 211 132 26 340 37 3 25 7 8 25 35 38
48 52 52 63 64 67 70 73 74 82 86 83 92 96 75 73 83 89 78 64 48 49 59 122 121 104 114 104 119 147 135 118 63 41 338 39 6 25 7 11 30 37 37
47 47 51 64 77 65 74 84 88 91 93 86 93 99 104 89 66 88 91 79 57 38 35 64 80 83 82 102 85 96 120 104 87 88 333 79 356 358 344 28 27 35 40
19 37 45 70 77 84 87 77 93 96 97 85 74 71 96 103 87 91 93 93 83 73 68 81 87 87 82 78 106 98 77 103 106 80 2 82 1 325 344 15 16 27 36
37 21 19 26 31 85 91 88 104 104 105 104 81 75 62 107 106 103 114 110 106 105 105 85 91 74 70 67 49 39 77 134 134 138 176 136 111 22 81 25 18 12 3